Location: Rochefort
(43.9765°N, 4.6902°E)
Time: 05:18:46
(UTC+00:00)

Daily predictions for brighter satellites

Satellite Brightness Start Highest point End
(mag) Time Altitude Azimuth Time Altitude Azimuth Time Altitude Azimuth
Cosmos 2360 Rocket 4.3 03:22:34 22° ENE 03:22:34 22° ENE 03:25:09 10° NE
FALCON 9 R/B 4.2 03:58:23 17° SSE 03:58:23 17° SSE 03:59:52 10° SSE
SJ 16-02 3.7 03:59:59 21° ENE 03:59:59 21° ENE 04:03:01 10° ESE
BREEZE-M DEB (TANK) 3.9 04:13:17 67° NNW 04:14:05 74° NNE 04:34:20 10° ESE
Meteor 2-5 Rocket 4.2 04:14:15 53° NE 04:15:00 58° ENE 04:20:33 10° SSE
Cosmos 1844 Rocket 3.0 04:15:58 62° E 04:15:58 62° E 04:21:07 10° SE
Cosmos 2333 Rocket 3.6 04:14:16 10° S 04:19:19 35° ESE 04:24:24 10° NE
ADEOS 3.6 04:26:04 10° NNE 04:31:19 77° ESE 04:31:39 73° SE
Meteor 2-11 Rocket 4.4 04:35:22 63° NNW 04:35:22 63° NNW 04:40:40 10° N
SKYMED 2 4.2 04:30:37 10° SSE 04:34:49 53° ENE 04:34:53 53° ENE
Cosmos 2219 Rocket 3.2 04:32:10 10° S 04:37:24 43° ESE 04:42:40 10° NE
COSMOS 2428 4.1 04:33:03 10° S 04:38:14 37° ESE 04:43:25 10° NE
Cosmos 2233 Rocket 3.8 04:35:29 10° S 04:41:45 82° W 04:48:02 10° N
Cosmos 2333 4.3 04:41:08 21° SSW 04:44:53 72° ESE 04:50:29 10° NNE
Cosmos 44 3.4 04:48:07 70° SW 04:48:07 70° SW 04:53:26 10° SSE
METEOR-M 4.2 04:43:34 10° N 04:48:02 57° NNW 04:48:02 57° NNW
SL-16 R/B 3.8 04:55:44 20° NNW 04:55:44 20° NNW 04:58:05 10° N
USA 215 4.5 04:51:01 10° ENE 04:56:24 28° N 04:58:40 23° NNW
CZ-4B R/B 3.1 04:53:37 10° NNE 04:57:11 58° E 05:00:45 10° S
deb Chang Zheng 4 3.5 04:54:52 10° NNE 04:59:10 80° ESE 05:03:23 10° S
Cosmos 1932 4.4 04:57:35 27° SW 05:01:21 81° NW 05:07:52 10° NNE
Cosmos 2322 Rocket 3.5 05:03:53 24° NNW 05:03:53 24° NNW 05:06:50 10° N
Meteor 1-24 Rocket 3.5 05:00:43 29° NNW 05:03:34 71° W 05:09:05 10° S
Cosmos 2360 Rocket 2.4 05:04:23 46° NW 05:04:23 46° NW 05:09:38 10° NNE
USA 276 3.0 05:06:02 47° E 05:06:02 47° E 05:08:27 10° ESE
IRIDIUM 106 4.2 05:01:30 10° S 05:06:44 89° W 05:11:59 10° N
Cosmos 1758 3.8 05:04:08 10° S 05:08:05 61° E 05:12:06 10° NNE
Cosmos 1892 Rocket 3.8 05:07:07 13° N 05:11:00 69° E 05:15:20 10° SSE
Cosmos 1464 Rocket 4.3 05:06:10 10° S 05:12:13 66° E 05:18:18 10° NNE
SAR-Lupe-4 3.5 05:12:24 10° SSE 05:15:59 85° ENE 05:17:07 42° N
Cosmos 990 Rocket 4.2 05:13:55 14° NNW 05:18:24 68° ENE 05:23:30 10° SSE
COSMO-SKYMED 1 2.8 05:18:45 10° S 05:22:56 46° W 05:23:31 43° WNW
GEOS 3 Rocket 4.1 05:20:31 10° S 05:25:33 42° WSW 05:27:19 32° WNW
Cosmos 1844 4.0 05:23:43 32° WNW 05:25:51 45° WSW 05:31:19 10° S
SAR-Lupe-1 3.9 05:23:59 10° S 05:27:33 71° WSW 05:28:57 34° NNW
SJ-7 4.5 05:29:19 10° NNE 05:33:33 84° ESE 05:37:40 10° SSW
Cosmos 1898 Rocket 3.5 05:30:07 10° NNW 05:35:20 81° ENE 05:40:30 10° SSE
Lacrosse 5 rocket 3.2 05:34:22 14° NNW 05:36:11 19° NNE 05:38:57 10° ENE
Cosmos 1470 3.1 05:33:43 10° SSW 05:37:22 40° WNW 05:41:02 10° N
Cosmos 1867 4.3 05:35:55 28° WNW 05:37:22 32° NW 05:42:17 10° NNE
SJ 16-02 1.7 05:37:01 30° WNW 05:38:28 41° WSW 05:42:33 10° S
Okean 1-7 Rocket 3.6 05:33:54 10° N 05:38:29 88° E 05:43:00 10° S
BREEZE-M DEB (TANK) 2.7 05:38:45 31° N 05:38:45 31° N 05:40:36 10° NE
Cosmos 1763 Rocket 3.4 05:38:09 10° SSW 05:43:17 81° WNW 05:48:32 10° NNE
Meteor PRIRODA 4.0 05:40:08 10° N 05:43:31 37° WNW 05:46:51 10° SW
Cosmos 1689 Rocket 2.4 05:40:46 10° S 05:43:32 41° W 05:43:39 41° W
Cosmos 921 Rocket 2.8 05:39:28 10° SSW 05:43:46 81° WNW 05:48:02 10° NNE
YAOGAN 6 2.5 05:40:37 10° N 05:44:18 78° WNW 05:47:59 10° SSW
Cosmos 841 Rocket 4.3 05:40:36 10° S 05:45:34 52° ESE 05:50:34 10° NNE
Cosmos 1544 Rocket 3.5 05:42:18 10° S 05:46:37 86° E 05:50:58 10° N
Cosmos 2034 Rocket 4.1 05:40:26 10° S 05:46:48 86° E 05:53:13 10° N
GPS 2-04 Rocket1 4.5 05:45:15 14° SW 05:47:44 24° S 05:51:07 10° SE
ERS-2 3.1 05:45:26 10° SSW 05:48:32 26° W 05:48:37 26° W
PSLV R/B 4.3 05:46:32 10° S 05:50:23 40° W 05:53:40 14° NNW
Cosmos 1356 Rocket 4.0 05:48:23 10° SW 05:51:59 31° WNW 05:55:40 10° N
BREEZE M DEB (TANK) 2.0 05:52:14 30° WSW 05:52:38 33° SW 05:54:35 10° SE
Cosmos 1461 3.5 05:48:40 10° SSW 05:53:17 68° ESE 05:58:02 10° NE
Cosmos 1400 Rocket 4.1 05:50:21 10° SSE 05:54:12 45° E 05:58:08 10° NNE
Cosmos 2084 3.5 05:50:24 10° SW 05:54:29 54° NW 05:58:46 10° NNE
SL-8 R/B 4.0 05:52:30 21° WNW 05:55:39 61° NNE 06:00:26 10° E
CZ-4B R/B 4.2 05:50:50 10° NNE 05:56:24 53° E 06:01:53 10° S
MOS 1 Rocket 4.1 05:53:23 10° SSW 05:58:06 35° W 06:02:36 10° NNW
Cosmos 2278 Rocket 2.3 05:52:58 10° NNW 05:58:42 80° ENE 06:04:22 10° SSE
Cosmos 1844 Rocket 4.0 05:57:41 18° W 05:58:54 19° W 06:02:42 10° SW
Cosmos 2322 4.3 05:56:38 10° WSW 06:01:48 34° NW 06:07:00 10° N
Cosmos 2333 Rocket 2.7 05:58:18 10° WSW 06:03:31 37° NW 06:08:46 10° NNE
Cosmos 1726 3.0 06:01:22 10° SW 06:04:35 28° WNW 06:07:51 10° NNW
Nadezhda 4 Rocket 3.9 05:58:50 10° NNW 06:04:57 71° W 06:11:01 10° S
NOAA 6 4.0 06:00:45 10° N 06:05:56 75° WNW 06:11:06 10° SSW
Cosmos 1626 Rocket 3.6 06:02:14 10° N 06:06:44 87° W 06:11:12 10° S
PSLV R/B 4.0 06:03:24 10° N 06:07:10 49° WNW 06:11:00 10° SSW
Cosmos 2237 Rocket 2.4 06:04:15 10° SSW 06:09:53 78° ESE 06:15:35 10° NNE
Cosmos 468 Rocket 4.3 06:05:21 10° SW 06:10:21 45° WNW 06:15:25 10° N
H-2A R/B 3.7 06:07:40 10° NNW 06:10:40 24° WNW 06:13:40 10° WSW
Okean O Rocket 2.0 06:09:08 10° NNE 06:13:31 70° ESE 06:17:51 10° S
Cosmos 1455 Rocket 3.7 06:10:18 10° SW 06:14:12 31° WNW 06:18:06 10° N
Cosmos 1814 Rocket 4.3 06:09:49 10° S 06:14:55 71° ESE 06:20:02 10° NNE
BREEZE-M DEB (TANK) 3.2 06:12:33 10° SW 06:15:39 75° SSE 06:25:35 10° ENE
Cosmos 1937 Rocket 3.6 06:11:06 10° NNW 06:16:19 62° WSW 06:21:29 10° S
Cosmos 1340 2.7 06:13:21 10° N 06:17:08 86° E 06:20:53 10° S
Cosmos 1953 2.6 06:13:57 10° SSW 06:17:46 44° WNW 06:21:36 10° N
Envisat 3.3 06:13:23 10° N 06:18:10 42° WNW 06:22:56 10° SW
Cosmos 2219 Rocket 2.9 06:16:35 10° WSW 06:21:29 31° NW 06:26:26 10° N
COSMOS 2428 3.3 06:17:17 10° WSW 06:22:30 36° NW 06:27:43 10° N
Cosmos 1943 Rocket 4.1 06:19:57 10° N 06:24:37 25° NE 06:29:15 10° ESE
CZ-2C R/B 2.6 06:21:18 10° S 06:26:26 62° W 06:31:40 10° NNW
Cosmos 1758 Rocket 4.2 06:21:58 10° N 06:26:26 61° E 06:30:52 10° SSE
Cosmos 44 Rocket 3.5 06:21:34 10° NW 06:26:49 86° WSW 06:32:02 10° SSE
Cosmos 2228 4.4 06:23:09 10° SSE 06:27:12 44° E 06:31:15 10° NNE
Cosmos 372 Rocket 4.0 06:25:46 10° NNW 06:31:03 87° WSW 06:36:18 10° SSE
DMSP B5D2-2 4.1 06:26:59 10° S 06:32:13 77° WSW 06:37:30 10° NNW
Lacrosse 4 Rocket 3.3 06:30:55 10° S 06:34:44 36° ESE 06:38:42 10° NE
Cosmos 1315 Rocket 4.1 06:33:23 10° SSE 06:37:07 44° E 06:40:52 10° NNE
USA 215 4.0 06:32:21 10° E 06:38:25 43° NNE 06:44:31 10° NW
Cosmos 1980 3.8 06:36:12 10° SW 06:41:46 57° WNW 06:47:21 10° NNE
NOAA 11 4.2 06:36:30 10° N 06:41:58 70° WNW 06:47:22 10° SSW
Cosmos 2026 Rocket 4.1 06:36:37 10° N 06:42:56 78° W 06:49:17 10° S
